WZZ734 LYBE-LQSA

Flight info

Callsign WZZ734
Flight time 0h 25m
Altitude 20000
Route VAL4F VAL Y88 VEBAR VEBAR1G
Aircraft A320/M-SDE3FGHIRWY/LB1

Departure

Time 2026-05-05 18:38
Airport Belgrade Nikola Tesla Airport (LYBE)

Arrival

Time 2026-05-05 19:04
Airport Sarajevo International Airport (LQSA)
Time Latitude Longitude Altitude Speed Heading
2026-05-05 18:24 44.82069 20.29370 329 ft 0 kts 298°
2026-05-05 18:34 44.82070 20.29367 329 ft 1 kts 298°
2026-05-05 18:34 44.82075 20.29358 326 ft 1 kts 308°
2026-05-05 18:34 44.82084 20.29347 328 ft 2 kts 319°
2026-05-05 18:35 44.82098 20.29334 329 ft 3 kts 330°
2026-05-05 18:35 44.82115 20.29325 328 ft 3 kts 342°
2026-05-05 18:35 44.82136 20.29317 327 ft 3 kts 341°
2026-05-05 18:35 44.82155 20.29301 327 ft 3 kts 324°
2026-05-05 18:36 44.82177 20.29264 329 ft 7 kts 304°
2026-05-05 18:36 44.82212 20.29187 326 ft 11 kts 302°
2026-05-05 18:36 44.82289 20.29136 328 ft 16 kts
2026-05-05 18:36 44.82373 20.29016 327 ft 21 kts 302°
2026-05-05 18:37 44.82483 20.28859 323 ft 25 kts 356°
2026-05-05 18:37 44.82613 20.29028 325 ft 29 kts 74°
2026-05-05 18:37 44.82556 20.29315 326 ft 33 kts 119°
2026-05-05 18:37 44.82359 20.29768 328 ft 100 kts 122°
2026-05-05 18:38 44.81824 20.30992 388 ft 184 kts 121°
2026-05-05 18:38 44.81058 20.32675 930 ft 211 kts 123°
2026-05-05 18:38 44.80278 20.34163 1441 ft 167 kts 140°
2026-05-05 18:38 44.79283 20.34905 1913 ft 161 kts 165°
2026-05-05 18:39 44.78171 20.35107 2279 ft 162 kts 175°
2026-05-05 18:39 44.77049 20.35226 2312 ft 162 kts 174°
2026-05-05 18:39 44.75876 20.35373 2443 ft 181 kts 174°
2026-05-05 18:39 44.74744 20.35532 3787 ft 148 kts 174°
2026-05-05 18:40 44.73793 20.35681 4835 ft 140 kts 175°
2026-05-05 18:40 44.72611 20.35863 5307 ft 202 kts 176°
2026-05-05 18:40 44.71036 20.36072 5917 ft 252 kts 177°
2026-05-05 18:40 44.69140 20.36290 6684 ft 294 kts 177°
2026-05-05 18:41 44.66953 20.36541 7427 ft 334 kts 177°
2026-05-05 18:41 44.64538 20.36831 8171 ft 362 kts 176°
2026-05-05 18:41 44.61959 20.37155 8940 ft 381 kts 176°
2026-05-05 18:41 44.59272 20.37505 9737 ft 395 kts 176°
2026-05-05 18:42 44.56536 20.37871 10517 ft 403 kts 175°
2026-05-05 18:42 44.53729 20.38249 11519 ft 406 kts 176°
2026-05-05 18:42 44.50925 20.38009 12714 ft 406 kts 194°
2026-05-05 18:42 44.48402 20.36282 13944 ft 407 kts 217°
2026-05-05 18:43 44.46556 20.33303 15071 ft 408 kts 239°
2026-05-05 18:43 44.45474 20.29653 16258 ft 407 kts 252°
2026-05-05 18:43 44.44740 20.25955 17450 ft 371 kts 255°
2026-05-05 18:43 44.44109 20.22700 18714 ft 329 kts 255°
2026-05-05 18:44 44.43529 20.19703 20140 ft 308 kts 255°
2026-05-05 18:44 44.42900 20.16996 21629 ft 285 kts 249°
2026-05-05 18:44 44.42097 20.14452 22522 ft 289 kts 245°
2026-05-05 18:44 44.41183 20.11920 23203 ft 295 kts 243°
2026-05-05 18:45 44.40201 20.09313 23645 ft 310 kts 243°
2026-05-05 18:45 44.39170 20.06554 23790 ft 332 kts 244°
2026-05-05 18:45 44.38089 20.03599 24028 ft 348 kts 244°
2026-05-05 18:45 44.36991 20.00545 24544 ft 354 kts 245°
2026-05-05 18:46 44.35894 19.97446 25149 ft 357 kts 245°
2026-05-05 18:46 44.34793 19.94320 25779 ft 360 kts 245°
2026-05-05 18:46 44.33701 19.91213 26408 ft 362 kts 245°
2026-05-05 18:46 44.32611 19.88031 27020 ft 364 kts 249°
2026-05-05 18:47 44.31954 19.84619 27613 ft 365 kts 259°
2026-05-05 18:47 44.31430 19.81140 27919 ft 367 kts 259°
2026-05-05 18:47 44.30907 19.77656 27985 ft 366 kts 259°
2026-05-05 18:47 44.30385 19.74178 27989 ft 366 kts 259°
2026-05-05 18:48 44.29864 19.70708 27993 ft 366 kts 259°
2026-05-05 18:48 44.29339 19.67230 27994 ft 366 kts 258°
2026-05-05 18:48 44.28813 19.63756 27996 ft 366 kts 258°
2026-05-05 18:48 44.28290 19.60332 27996 ft 366 kts 258°
2026-05-05 18:49 44.27758 19.56864 28000 ft 366 kts 258°
2026-05-05 18:49 44.27223 19.53391 28002 ft 366 kts 258°
2026-05-05 18:49 44.26155 19.46455 28005 ft 366 kts 258°
2026-05-05 18:50 44.25085 19.39520 28007 ft 366 kts 258°
2026-05-05 18:50 44.24542 19.35998 28017 ft 381 kts 258°
2026-05-05 18:50 44.23971 19.32302 28016 ft 399 kts 258°
2026-05-05 18:51 44.23381 19.28505 28018 ft 411 kts 258°
2026-05-05 18:51 44.22773 19.24587 28021 ft 415 kts 258°
2026-05-05 18:51 44.21547 19.16711 28026 ft 416 kts 258°
2026-05-05 18:52 44.20313 19.08842 28029 ft 415 kts 258°
2026-05-05 18:52 44.19082 19.01048 28031 ft 414 kts 258°
2026-05-05 18:53 44.17839 18.93230 28031 ft 413 kts 257°
2026-05-05 18:53 44.17219 18.89346 27620 ft 408 kts 257°
2026-05-05 18:53 44.16605 18.85503 26920 ft 404 kts 257°
2026-05-05 18:54 44.15996 18.81695 26244 ft 401 kts 257°
2026-05-05 18:54 44.15393 18.77925 25568 ft 397 kts 257°
2026-05-05 18:54 44.14794 18.74192 24942 ft 394 kts 257°
2026-05-05 18:54 44.14205 18.70533 24316 ft 390 kts 257°
2026-05-05 18:55 44.13613 18.66867 23685 ft 388 kts 257°
2026-05-05 18:55 44.13022 18.63215 22980 ft 385 kts 257°
2026-05-05 18:55 44.12436 18.59602 22327 ft 382 kts 256°
2026-05-05 18:55 44.11853 18.56011 21702 ft 378 kts 256°
2026-05-05 18:56 44.11275 18.52463 21090 ft 375 kts 257°
2026-05-05 18:56 44.10702 18.48941 20497 ft 372 kts 257°
2026-05-05 18:56 44.10135 18.45448 20034 ft 366 kts 257°
2026-05-05 18:56 44.09580 18.42036 19201 ft 371 kts 257°
2026-05-05 18:57 44.08999 18.38490 18059 ft 383 kts 257°
2026-05-05 18:57 44.08395 18.34820 16752 ft 395 kts 257°
2026-05-05 18:57 44.07770 18.31047 15433 ft 406 kts 257°
2026-05-05 18:57 44.07132 18.27194 14395 ft 409 kts 257°
2026-05-05 18:58 44.06437 18.23374 13522 ft 406 kts 253°
2026-05-05 18:58 44.05590 18.19654 12676 ft 400 kts 250°
2026-05-05 18:58 44.04642 18.16051 11841 ft 394 kts 249°
2026-05-05 18:58 44.03646 18.12532 11017 ft 389 kts 248°
2026-05-05 18:59 44.02611 18.09154 10215 ft 382 kts 242°
2026-05-05 18:59 44.00912 18.06394 9417 ft 376 kts 217°
2026-05-05 18:59 43.98579 18.04872 8586 ft 372 kts 196°
2026-05-05 18:59 43.96027 18.04400 7726 ft 369 kts 182°
2026-05-05 19:00 43.93527 18.05065 7002 ft 369 kts 158°
2026-05-05 19:00 43.91466 18.07146 6237 ft 369 kts 135°
2026-05-05 19:00 43.90054 18.09999 5437 ft 347 kts 120°
2026-05-05 19:00 43.89116 18.12956 4670 ft 326 kts 113°
2026-05-05 19:01 43.88367 18.15803 4223 ft 300 kts 112°
2026-05-05 19:01 43.87684 18.18331 4088 ft 268 kts 114°
2026-05-05 19:01 43.87025 18.20520 4054 ft 219 kts 116°
2026-05-05 19:01 43.86480 18.22281 3681 ft 184 kts 115°
2026-05-05 19:02 43.85978 18.23833 3276 ft 166 kts 119°
2026-05-05 19:02 43.85453 18.25207 2803 ft 159 kts 120°
2026-05-05 19:02 43.84945 18.26543 2457 ft 152 kts 119°
2026-05-05 19:02 43.84471 18.27772 2269 ft 140 kts 120°
2026-05-05 19:03 43.84037 18.28952 2100 ft 136 kts 118°
2026-05-05 19:03 43.83611 18.30082 1965 ft 133 kts 119°
2026-05-05 19:03 43.83183 18.31215 1816 ft 133 kts 119°
2026-05-05 19:03 43.82768 18.32339 1702 ft 129 kts 117°
2026-05-05 19:04 43.82376 18.33382 1688 ft 111 kts 117°
2026-05-05 19:04 43.82165 18.33924 1697 ft 11 kts 132°
2026-05-05 19:04 43.82124 18.33995 1698 ft 6 kts 101°
2026-05-05 19:04 43.82145 18.33990 1698 ft 4 kts 304°
2026-05-05 19:05 43.82162 18.33946 1700 ft 6 kts 298°
2026-05-05 19:05 43.82184 18.33887 1698 ft 7 kts 297°
2026-05-05 19:05 43.82221 18.33791 1697 ft 16 kts 299°
2026-05-05 19:05 43.82327 18.33674 1692 ft 24 kts 343°
2026-05-05 19:06 43.82491 18.33649 1697 ft 25 kts 25°
2026-05-05 19:06 43.82528 18.33690 1690 ft 0 kts 43°